Time,TemperatureF,DewpointF,PressureIn,WindDirection,WindDirectionDegrees,WindSpeedMPH,WindSpeedGustMPH,Humidity,HourlyPrecipIn,Conditions,Clouds,dailyrainin,SoftwareType,DateUTC
2013-01-21 00:00:00,35.0,35.0,30.30,NNE,30,2.0,-999.0,99,-99.99,,,-99.99,,2013-01-21 08:00:00,
2013-01-21 00:22:00,35.0,35.0,30.30,NNE,30,2.0,-999.0,99,-99.99,,,-99.99,,2013-01-21 08:22:00,
2013-01-21 00:32:00,35.0,35.0,30.30,NNE,30,2.0,-999.0,99,-99.99,,,-99.99,,2013-01-21 08:32:00,
2013-01-21 00:42:00,35.0,35.0,30.30,NNE,30,2.0,-999.0,99,-99.99,,,-99.99,,2013-01-21 08:42:00,
2013-01-21 00:52:00,35.0,35.0,30.30,NNE,30,2.0,-999.0,99,-99.99,,,-99.99,,2013-01-21 08:52:00,
2013-01-21 01:00:00,34.0,34.0,30.29,NNE,30,2.0,-999.0,99,-99.99,,,-99.99,,2013-01-21 09:00:00,
2013-01-21 01:22:00,34.0,34.0,30.29,NNE,30,2.0,-999.0,99,-99.99,,,-99.99,,2013-01-21 09:22:00,
2013-01-21 01:32:00,34.0,34.0,30.29,NNE,30,2.0,-999.0,99,-99.99,,,-99.99,,2013-01-21 09:32:00,
2013-01-21 01:42:00,34.0,34.0,30.29,NNE,30,2.0,-999.0,99,-99.99,,,-99.99,,2013-01-21 09:42:00,
2013-01-21 01:52:00,34.0,34.0,30.29,NNE,30,2.0,-999.0,99,-99.99,,,-99.99,,2013-01-21 09:52:00,
2013-01-21 02:00:00,34.0,34.0,30.30,NW,310,1.0,-999.0,99,-99.99,,,-99.99,,2013-01-21 10:00:00,
2013-01-21 02:22:00,34.0,34.0,30.30,NW,310,1.0,-999.0,99,-99.99,,,-99.99,,2013-01-21 10:22:00,
2013-01-21 02:32:00,34.0,34.0,30.30,NW,310,1.0,-999.0,99,-99.99,,,-99.99,,2013-01-21 10:32:00,
2013-01-21 02:42:00,34.0,34.0,30.30,NW,310,1.0,-999.0,99,-99.99,,,-99.99,,2013-01-21 10:42:00,
2013-01-21 02:52:00,34.0,34.0,30.30,NW,310,1.0,-999.0,99,-99.99,,,-99.99,,2013-01-21 10:52:00,
2013-01-21 03:00:00,34.0,34.0,30.29,NNW,340,1.0,-999.0,99,-99.99,,,-99.99,,2013-01-21 11:00:00,
2013-01-21 03:22:00,34.0,34.0,30.29,NNW,340,1.0,-999.0,99,-99.99,,,-99.99,,2013-01-21 11:22:00,
2013-01-21 03:32:00,34.0,34.0,30.29,NNW,340,1.0,-999.0,99,-99.99,,,-99.99,,2013-01-21 11:32:00,
2013-01-21 03:42:00,34.0,34.0,30.29,NNW,340,1.0,-999.0,99,-99.99,,,-99.99,,2013-01-21 11:42:00,
2013-01-21 03:52:00,34.0,34.0,30.29,NNW,340,1.0,-999.0,99,-99.99,,,-99.99,,2013-01-21 11:52:00,
2013-01-21 04:00:00,32.0,32.0,30.28,North,360,1.0,-999.0,99,-99.99,,,-99.99,,2013-01-21 12:00:00,
2013-01-21 04:22:00,32.0,32.0,30.28,North,360,1.0,-999.0,99,-99.99,,,-99.99,,2013-01-21 12:22:00,
2013-01-21 04:32:00,32.0,32.0,30.28,North,360,1.0,-999.0,99,-99.99,,,-99.99,,2013-01-21 12:32:00,
2013-01-21 04:42:00,32.0,32.0,30.28,North,360,1.0,-999.0,99,-99.99,,,-99.99,,2013-01-21 12:42:00,
2013-01-21 04:52:00,32.0,32.0,30.28,North,360,1.0,-999.0,99,-99.99,,,-99.99,,2013-01-21 12:52:00,
2013-01-21 05:00:00,33.0,33.0,30.26,NNE,20,2.0,-999.0,99,-99.99,,,-99.99,,2013-01-21 13:00:00,
2013-01-21 05:22:00,33.0,33.0,30.26,NNE,20,2.0,-999.0,99,-99.99,,,-99.99,,2013-01-21 13:22:00,
2013-01-21 05:32:00,33.0,33.0,30.26,NNE,20,2.0,-999.0,99,-99.99,,,-99.99,,2013-01-21 13:32:00,
2013-01-21 05:42:00,33.0,33.0,30.26,NNE,20,2.0,-999.0,99,-99.99,,,-99.99,,2013-01-21 13:42:00,
2013-01-21 05:53:00,33.0,33.0,30.26,NNE,20,2.0,-999.0,99,-99.99,,,-99.99,,2013-01-21 13:53:00,
2013-01-21 06:00:00,33.0,33.0,30.25,NNE,30,2.0,-999.0,99,-99.99,,,-99.99,,2013-01-21 14:00:00,
2013-01-21 06:22:00,33.0,33.0,30.25,NNE,30,2.0,-999.0,99,-99.99,,,-99.99,,2013-01-21 14:22:00,
2013-01-21 06:32:00,33.0,33.0,30.25,NNE,30,2.0,-999.0,99,-99.99,,,-99.99,,2013-01-21 14:32:00,
2013-01-21 06:42:00,33.0,33.0,30.25,NNE,30,2.0,-999.0,99,-99.99,,,-99.99,,2013-01-21 14:42:00,
2013-01-21 06:52:00,33.0,33.0,30.25,NNE,30,2.0,-999.0,99,-99.99,,,-99.99,,2013-01-21 14:52:00,
2013-01-21 07:00:00,33.0,33.0,30.24,West,260,1.0,-999.0,99,-99.99,,,-99.99,,2013-01-21 15:00:00,
2013-01-21 07:22:00,33.0,33.0,30.24,West,260,1.0,-999.0,99,-99.99,,,-99.99,,2013-01-21 15:22:00,
2013-01-21 07:32:00,33.0,33.0,30.24,West,260,1.0,-999.0,99,-99.99,,,-99.99,,2013-01-21 15:32:00,
2013-01-21 07:42:00,33.0,33.0,30.24,West,260,1.0,-999.0,99,-99.99,,,-99.99,,2013-01-21 15:42:00,
2013-01-21 07:52:00,33.0,33.0,30.24,West,260,1.0,-999.0,99,-99.99,,,-99.99,,2013-01-21 15:52:00,
2013-01-21 08:00:00,33.0,33.0,30.23,WSW,240,2.0,-999.0,100,-99.99,,,-99.99,,2013-01-21 16:00:00,
2013-01-21 08:22:00,33.0,33.0,30.23,WSW,240,2.0,-999.0,100,-99.99,,,-99.99,,2013-01-21 16:22:00,
2013-01-21 08:32:00,33.0,33.0,30.23,WSW,240,2.0,-999.0,100,-99.99,,,-99.99,,2013-01-21 16:32:00,
2013-01-21 08:42:00,33.0,33.0,30.23,WSW,240,2.0,-999.0,100,-99.99,,,-99.99,,2013-01-21 16:42:00,
2013-01-21 08:52:00,33.0,33.0,30.23,WSW,240,2.0,-999.0,100,-99.99,,,-99.99,,2013-01-21 16:52:00,
2013-01-21 09:00:00,32.0,32.0,30.24,NE,40,1.0,-999.0,100,-99.99,,,-99.99,,2013-01-21 17:00:00,
2013-01-21 09:22:00,32.0,32.0,30.24,NE,40,1.0,-999.0,100,-99.99,,,-99.99,,2013-01-21 17:22:00,
2013-01-21 09:42:00,32.0,32.0,30.24,NE,40,1.0,-999.0,100,-99.99,,,-99.99,,2013-01-21 17:42:00,
2013-01-21 09:52:00,32.0,32.0,30.24,NE,40,1.0,-999.0,100,-99.99,,,-99.99,,2013-01-21 17:52:00,
2013-01-21 10:00:00,34.0,34.0,30.25,WSW,250,5.0,-999.0,99,-99.99,,,-99.99,,2013-01-21 18:00:00,
2013-01-21 10:22:00,34.0,34.0,30.25,WSW,250,5.0,-999.0,99,-99.99,,,-99.99,,2013-01-21 18:22:00,
2013-01-21 10:32:00,34.0,34.0,30.25,WSW,250,5.0,-999.0,99,-99.99,,,-99.99,,2013-01-21 18:32:00,
2013-01-21 10:42:00,34.0,34.0,30.25,WSW,250,5.0,-999.0,99,-99.99,,,-99.99,,2013-01-21 18:42:00,
2013-01-21 10:52:00,34.0,34.0,30.25,WSW,250,5.0,-999.0,99,-99.99,,,-99.99,,2013-01-21 18:52:00,
2013-01-21 11:00:00,35.0,35.0,30.26,WSW,250,6.0,-999.0,99,-99.99,,,-99.99,,2013-01-21 19:00:00,
2013-01-21 11:22:00,35.0,35.0,30.26,WSW,250,6.0,-999.0,99,-99.99,,,-99.99,,2013-01-21 19:22:00,
2013-01-21 11:32:00,35.0,35.0,30.26,WSW,250,6.0,-999.0,99,-99.99,,,-99.99,,2013-01-21 19:32:00,
2013-01-21 11:42:00,35.0,35.0,30.26,WSW,250,6.0,-999.0,99,-99.99,,,-99.99,,2013-01-21 19:42:00,
2013-01-21 11:52:00,35.0,35.0,30.26,WSW,250,6.0,-999.0,99,-99.99,,,-99.99,,2013-01-21 19:52:00,
2013-01-21 12:00:00,33.0,33.0,30.25,WNW,290,1.0,-999.0,99,-99.99,,,-99.99,,2013-01-21 20:00:00,
2013-01-21 12:22:00,33.0,33.0,30.25,WNW,290,1.0,-999.0,99,-99.99,,,-99.99,,2013-01-21 20:22:00,
2013-01-21 12:32:00,33.0,33.0,30.25,WNW,290,1.0,-999.0,99,-99.99,,,-99.99,,2013-01-21 20:32:00,
2013-01-21 12:42:00,33.0,33.0,30.25,WNW,290,1.0,-999.0,99,-99.99,,,-99.99,,2013-01-21 20:42:00,
2013-01-21 12:52:00,33.0,33.0,30.25,WNW,290,1.0,-999.0,99,-99.99,,,-99.99,,2013-01-21 20:52:00,
2013-01-21 13:00:00,33.0,33.0,30.22,WSW,250,3.0,-999.0,100,-99.99,,,-99.99,,2013-01-21 21:00:00,
2013-01-21 13:22:00,33.0,33.0,30.22,WSW,250,3.0,-999.0,100,-99.99,,,-99.99,,2013-01-21 21:22:00,
2013-01-21 13:32:00,33.0,33.0,30.22,WSW,250,3.0,-999.0,100,-99.99,,,-99.99,,2013-01-21 21:32:00,
2013-01-21 13:42:00,33.0,33.0,30.22,WSW,250,3.0,-999.0,100,-99.99,,,-99.99,,2013-01-21 21:42:00,
2013-01-21 13:52:00,33.0,33.0,30.22,WSW,250,3.0,-999.0,100,-99.99,,,-99.99,,2013-01-21 21:52:00,
2013-01-21 14:00:00,34.0,34.0,30.21,West,260,1.0,-999.0,99,-99.99,,,-99.99,,2013-01-21 22:00:00,
2013-01-21 14:22:00,34.0,34.0,30.21,West,260,1.0,-999.0,99,-99.99,,,-99.99,,2013-01-21 22:22:00,
2013-01-21 14:32:00,34.0,34.0,30.21,West,260,1.0,-999.0,99,-99.99,,,-99.99,,2013-01-21 22:32:00,
2013-01-21 14:42:00,34.0,34.0,30.21,West,260,1.0,-999.0,99,-99.99,,,-99.99,,2013-01-21 22:42:00,
2013-01-21 14:52:00,34.0,34.0,30.21,West,260,1.0,-999.0,99,-99.99,,,-99.99,,2013-01-21 22:52:00,
2013-01-21 15:00:00,33.0,33.0,30.19,West,280,5.0,-999.0,99,-99.99,,,-99.99,,2013-01-21 23:00:00,
2013-01-21 15:22:00,33.0,33.0,30.19,West,280,5.0,-999.0,99,-99.99,,,-99.99,,2013-01-21 23:22:00,
2013-01-21 15:32:00,33.0,33.0,30.19,West,280,5.0,-999.0,99,-99.99,,,-99.99,,2013-01-21 23:32:00,
2013-01-21 15:42:00,33.0,33.0,30.19,West,280,5.0,-999.0,99,-99.99,,,-99.99,,2013-01-21 23:42:00,
2013-01-21 15:52:00,33.0,33.0,30.19,West,280,5.0,-999.0,99,-99.99,,,-99.99,,2013-01-21 23:52:00,
2013-01-21 16:00:00,34.0,34.0,30.18,SW,230,3.0,-999.0,100,-99.99,,,-99.99,,2013-01-22 00:00:00,
2013-01-21 16:22:00,34.0,34.0,30.18,SW,230,3.0,-999.0,100,-99.99,,,-99.99,,2013-01-22 00:22:00,
2013-01-21 16:32:00,34.0,34.0,30.18,SW,230,3.0,-999.0,100,-99.99,,,-99.99,,2013-01-22 00:32:00,
2013-01-21 16:42:00,34.0,34.0,30.18,SW,230,3.0,-999.0,100,-99.99,,,-99.99,,2013-01-22 00:42:00,
2013-01-21 16:52:00,34.0,34.0,30.18,SW,230,3.0,-999.0,100,-99.99,,,-99.99,,2013-01-22 00:52:00,
2013-01-21 17:00:00,35.0,35.0,30.17,WSW,250,2.0,-999.0,100,-99.99,,,-99.99,,2013-01-22 01:00:00,
2013-01-21 17:22:00,35.0,35.0,30.17,WSW,250,2.0,-999.0,100,-99.99,,,-99.99,,2013-01-22 01:22:00,
2013-01-21 17:32:00,35.0,35.0,30.17,WSW,250,2.0,-999.0,100,-99.99,,,-99.99,,2013-01-22 01:32:00,
2013-01-21 17:42:00,35.0,35.0,30.17,WSW,250,2.0,-999.0,100,-99.99,,,-99.99,,2013-01-22 01:42:00,
2013-01-21 17:52:00,35.0,35.0,30.17,WSW,250,2.0,-999.0,100,-99.99,,,-99.99,,2013-01-22 01:52:00,
2013-01-21 18:00:00,33.0,33.0,30.17,North,360,1.0,-999.0,100,-99.99,,,-99.99,,2013-01-22 02:00:00,
2013-01-21 18:22:00,33.0,33.0,30.17,North,360,1.0,-999.0,100,-99.99,,,-99.99,,2013-01-22 02:22:00,
2013-01-21 18:32:00,33.0,33.0,30.17,North,360,1.0,-999.0,100,-99.99,,,-99.99,,2013-01-22 02:32:00,
2013-01-21 18:42:00,33.0,33.0,30.17,North,360,1.0,-999.0,100,-99.99,,,-99.99,,2013-01-22 02:42:00,
2013-01-21 18:52:00,33.0,33.0,30.17,North,360,1.0,-999.0,100,-99.99,,,-99.99,,2013-01-22 02:52:00,
2013-01-21 19:00:00,34.0,34.0,30.16,SSW,210,2.0,-999.0,99,-99.99,,,-99.99,,2013-01-22 03:00:00,
2013-01-21 19:22:00,34.0,34.0,30.16,SSW,210,2.0,-999.0,99,-99.99,,,-99.99,,2013-01-22 03:22:00,
2013-01-21 19:32:00,34.0,34.0,30.16,SSW,210,2.0,-999.0,99,-99.99,,,-99.99,,2013-01-22 03:32:00,
2013-01-21 19:42:00,34.0,34.0,30.16,SSW,210,2.0,-999.0,99,-99.99,,,-99.99,,2013-01-22 03:42:00,
2013-01-21 19:52:00,34.0,34.0,30.16,SSW,210,2.0,-999.0,99,-99.99,,,-99.99,,2013-01-22 03:52:00,
2013-01-21 20:00:00,34.0,34.0,30.17,SSW,210,2.0,-999.0,99,-99.99,,,-99.99,,2013-01-22 04:00:00,
2013-01-21 20:22:00,34.0,34.0,30.17,SSW,210,2.0,-999.0,99,-99.99,,,-99.99,,2013-01-22 04:22:00,
2013-01-21 20:32:00,34.0,34.0,30.17,SSW,210,2.0,-999.0,99,-99.99,,,-99.99,,2013-01-22 04:32:00,
2013-01-21 20:42:00,34.0,34.0,30.17,SSW,210,2.0,-999.0,99,-99.99,,,-99.99,,2013-01-22 04:42:00,
2013-01-21 20:52:00,34.0,34.0,30.17,SSW,210,2.0,-999.0,99,-99.99,,,-99.99,,2013-01-22 04:52:00,
2013-01-21 21:00:00,33.0,33.0,30.17,WNW,300,2.0,-999.0,100,-99.99,,,-99.99,,2013-01-22 05:00:00,
2013-01-21 21:22:00,33.0,33.0,30.17,WNW,300,2.0,-999.0,100,-99.99,,,-99.99,,2013-01-22 05:22:00,
2013-01-21 21:32:00,33.0,33.0,30.17,WNW,300,2.0,-999.0,100,-99.99,,,-99.99,,2013-01-22 05:32:00,
2013-01-21 21:42:00,33.0,33.0,30.17,WNW,300,2.0,-999.0,100,-99.99,,,-99.99,,2013-01-22 05:42:00,
2013-01-21 21:52:00,33.0,33.0,30.17,WNW,300,2.0,-999.0,100,-99.99,,,-99.99,,2013-01-22 05:52:00,
2013-01-21 22:00:00,33.0,33.0,30.17,West,260,3.0,-999.0,99,-99.99,,,-99.99,,2013-01-22 06:00:00,
2013-01-21 22:22:00,33.0,33.0,30.17,West,260,3.0,-999.0,99,-99.99,,,-99.99,,2013-01-22 06:22:00,
2013-01-21 22:32:00,33.0,33.0,30.17,West,260,3.0,-999.0,99,-99.99,,,-99.99,,2013-01-22 06:32:00,
2013-01-21 22:42:00,33.0,33.0,30.17,West,260,3.0,-999.0,99,-99.99,,,-99.99,,2013-01-22 06:42:00,
2013-01-21 22:52:00,33.0,33.0,30.17,West,260,3.0,-999.0,99,-99.99,,,-99.99,,2013-01-22 06:52:00,
2013-01-21 23:00:00,33.0,33.0,30.17,West,270,3.0,-999.0,99,-99.99,,,-99.99,,2013-01-22 07:00:00,
2013-01-21 23:22:00,33.0,33.0,30.17,West,270,3.0,-999.0,99,-99.99,,,-99.99,,2013-01-22 07:22:00,
2013-01-21 23:32:00,33.0,33.0,30.17,West,270,3.0,-999.0,99,-99.99,,,-99.99,,2013-01-22 07:32:00,
2013-01-21 23:42:00,33.0,33.0,30.17,West,270,3.0,-999.0,99,-99.99,,,-99.99,,2013-01-22 07:42:00,
2013-01-21 23:52:00,33.0,33.0,30.17,West,270,3.0,-999.0,99,-99.99,,,-99.99,,2013-01-22 07:52:00,